Ketchikan, AK

9:47 PM AKDT on September 20, 2018 (GMT -0800)
Ketchikan International

Weather History for PAKT - August, 2018

Change the Weather History Date:

Sunday, August 12, 2018

  Actual Average Record
Temperature  
Mean Temperature 66 °F -  
Max Temperature 72 °F 67 °F 82 °F (1990)
Min Temperature 60 °F 51 °F 44 °F (1972)
Growing Degree Days 16 (Base 50)    
Moisture  
Dew Point 54 °F    
Average Humidity 68    
Maximum Humidity 81    
Minimum Humidity 53    
Precipitation  
Precipitation 0.00 in - - ()
Sea Level Pressure  
Sea Level Pressure 30.20 in    
Wind  
Wind Speed 11 mph (NNW)    
Max Wind Speed 15 mph    
Max Gust Speed 23 mph    
Visibility 10 miles    
Events      
Averages and records for this station are not official NWS values.
T = Trace of Precipitation, MM = Missing Value Source: NWS Daily Summary

Daily Weather History Graph

Daily Weather History Graph

Search for Another Location

Airport or City:

Astronomy

Aug. 12, 2018 Rise Set
Actual Time 5:14 AM AKDT 8:27 PM AKDT
Civil Twilight 4:31 AM AKDT 9:10 PM AKDT
Nautical Twilight 3:32 AM AKDT 10:08 PM AKDT
Astronomical Twilight 2:05 AM AKDT 11:32 PM AKDT
Moon 6:53 AM AKDT (8/12) 9:23 PM AKDT (8/12)
Length of Visible Light 16h 39m
Length of Day
15h 12m
Waxing Crescent, 3% of the Moon is Illuminated
Aug 12
Waxing Crescent
Aug 17
First Quarter
Aug 26
Full
Sep 2
Last Quarter
Sep 9
New

Hourly Weather History & Observations

Time (AKDT) Temp. Dew Point Humidity Pressure Visibility Wind Dir Wind Speed Gust Speed Precip Events Conditions
12:53 AM 62.1 °F 50.0 °F 65% 30.12 in 10.0 mi NW 11.5 mph 19.6 mph N/A   Clear
1:53 AM 61.0 °F 51.1 °F 70% 30.13 in 10.0 mi NNW 10.4 mph - N/A   Clear
2:53 AM 60.1 °F 53.1 °F 78% 30.15 in 10.0 mi North 9.2 mph - N/A   Clear
3:53 AM 60.1 °F 52.0 °F 75% 30.16 in 10.0 mi NNW 10.4 mph - N/A   Clear
4:53 AM 60.1 °F 52.0 °F 75% 30.17 in 10.0 mi NNW 11.5 mph - N/A   Clear
5:53 AM 61.0 °F 51.1 °F 70% 30.18 in 10.0 mi NW 8.1 mph - N/A   Clear
6:00 AM 60.1 °F 51.1 °F 72% 30.18 in 10.0 mi NNW 9.2 mph - N/A   Clear
6:53 AM 62.6 °F 51.8 °F 68% 30.18 in 10.0 mi NNW 9.2 mph - N/A   Scattered Clouds
7:53 AM 64.4 °F 51.8 °F 64% 30.20 in 10.0 mi NW 13.8 mph - N/A   Clear
8:53 AM 64.4 °F 51.8 °F 64% 30.21 in 10.0 mi NW 12.7 mph 23.0 mph N/A   Partly Cloudy
9:53 AM 66.2 °F 51.8 °F 60% 30.22 in 10.0 mi NNW 10.4 mph - N/A   Clear
10:53 AM 66.2 °F 53.6 °F 64% 30.22 in 10.0 mi North 12.7 mph - N/A   Clear
11:53 AM 69.8 °F 53.6 °F 56% 30.23 in 10.0 mi NW 13.8 mph - N/A   Clear
12:53 PM 71.6 °F 53.6 °F 53% 30.23 in 10.0 mi NW 12.7 mph - N/A   Scattered Clouds
1:53 PM 66.9 °F 55.9 °F 68% 30.23 in 10.0 mi NNW 12.7 mph - N/A   Scattered Clouds
2:53 PM 69.1 °F 55.9 °F 63% 30.23 in 10.0 mi NNW 15.0 mph - N/A   Scattered Clouds
3:53 PM 69.1 °F 55.9 °F 63% 30.23 in 10.0 mi NNW 13.8 mph - N/A   Scattered Clouds
4:53 PM 69.8 °F 55.4 °F 60% 30.22 in 10.0 mi NNW 15.0 mph - N/A   Clear
5:53 PM 69.8 °F 55.4 °F 60% 30.22 in 10.0 mi NNW 11.5 mph 21.9 mph N/A   Clear
6:53 PM 66.2 °F 55.4 °F 68% 30.22 in 10.0 mi NNW 12.7 mph - N/A   Mostly Cloudy
7:53 PM 64.9 °F 57.0 °F 75% 30.23 in 10.0 mi NNW 11.5 mph - N/A   Partly Cloudy
8:53 PM 64.0 °F 57.0 °F 78% 30.23 in 10.0 mi NNW 10.4 mph - N/A   Clear
9:53 PM 63.0 °F 57.0 °F 81% 30.24 in 10.0 mi NNW 8.1 mph - N/A   Clear
10:53 PM 62.6 °F 55.4 °F 77% 30.24 in 10.0 mi North 8.1 mph - N/A   Clear
11:53 PM 62.1 °F 55.9 °F 80% 30.24 in 10.0 mi NNW 6.9 mph - N/A   Clear